GW1281 Weather Reports


time (UTC)temp
F
wind
direction
speed
knots
gust
knots
rain 1hr
in
rain 24hr
in
rain mn
in
humidity
%
barometer
mb
20260504204535 73 299 3.5 13.0 0.00 0.00 0.00 32 1010.0
20260504204018 73 191 6.1 13.0 0.00 0.00 0.00 31 1010.0
20260504203518 73 212 7.0 12.2 0.00 0.00 0.00 30 1010.2
20260504203036 73 322 1.7 10.4 0.00 0.00 0.00 33 1010.2
20260504202518 73 301 1.7 13.0 0.00 0.00 0.00 33 1010.2
20260504202018 73 195 4.3 13.0 0.00 0.00 0.00 32 1010.3
20260504201534 73 180 6.1 11.3 0.00 0.00 0.00 31 1010.3
20260504201017 73 184 2.6 7.8 0.00 0.00 0.00 32 1010.2
20260504200517 73 201 2.6 13.9 0.00 0.00 0.00 32 1010.3
20260504200035 73 202 6.1 13.9 0.00 0.00 0.00 31 1010.2
20260504195517 73 223 4.3 10.4 0.00 0.00 0.00 30 1010.3
20260504195018 74 290 2.6 9.6 0.00 0.00 0.00 32 1010.3
20260504194540 73 259 3.5 8.7 0.00 0.00 0.00 31 1010.4
20260504194018 73 309 1.7 11.3 0.00 0.00 0.00 33 1010.4
20260504193516 73 205 3.5 11.3 0.00 0.00 0.00 32 1010.4
20260504193036 73 219 3.5 9.6 0.00 0.00 0.00 32 1010.4
20260504192518 72 246 3.5 10.4 0.00 0.00 0.00 32 1010.4
20260504192020 72 198 3.5 11.3 0.00 0.00 0.00 31 1010.6
20260504191535 72 205 6.1 11.3 0.00 0.00 0.00 31 1010.6
20260504191019 72 259 3.5 13.0 0.00 0.00 0.00 33 1010.6
20260504190518 72 265 4.3 13.0 0.00 0.00 0.00 31 1010.7
20260504190037 72 202 5.2 13.0 0.00 0.00 0.00 32 1011.1
20260504185517 72 247 5.2 13.0 0.00 0.00 0.00 32 1010.9
20260504185018 72 167 3.5 10.4 0.00 0.00 0.00 33 1010.9
20260504184534 71 202 4.3 13.0 0.00 0.00 0.00 33 1011.2
20260504184019 71 335 7.0 13.0 0.00 0.00 0.00 32 1011.2
20260504183519 72 319 4.3 13.0 0.00 0.00 0.00 33 1011.3
20260504183033 72 219 4.3 13.0 0.00 0.00 0.00 31 1011.3
20260504182519 72 269 2.6 10.4 0.00 0.00 0.00 35 1011.6
20260504182018 71 213 3.5 10.4 0.00 0.00 0.00 32 1011.5
20260504181536 71 202 3.5 12.2 0.00 0.00 0.00 33 1011.4
20260504181021 71 314 6.1 12.2 0.00 0.00 0.00 31 1011.5
20260504180519 71 293 3.5 11.3 0.00 0.00 0.00 32 1011.6
20260504180035 71 200 4.3 11.3 0.00 0.00 0.00 34 1011.7
20260504175518 71 316 5.2 11.3 0.00 0.00 0.00 33 1011.9
20260504175022 71 232 4.3 10.4 0.00 0.00 0.00 32 1011.9
20260504174535 71 252 5.2 10.4 0.00 0.00 0.00 33 1011.9
20260504174018 70 303 4.3 11.3 0.00 0.00 0.00 34 1012.0
20260504173517 70 325 5.2 12.2 0.00 0.00 0.00 32 1012.1
20260504173034 70 343 5.2 13.0 0.00 0.00 0.00 34 1012.2
20260504172517 70 222 3.5 15.6 0.00 0.00 0.00 34 1012.2
20260504172017 69 0 5.2 15.6 0.00 0.00 0.00 33 1012.3
20260504171545 69 272 7.8 14.8 0.00 0.00 0.00 34 1012.4
20260504171018 69 191 3.5 10.4 0.00 0.00 0.00 34 1012.4
20260504170518 69 308 5.2 10.4 0.00 0.00 0.00 34 1012.6
20260504151017 66 262 6.1 12.2 0.00 0.00 0.00 37 1013.8
20260504150518 65 317 3.5 12.2 0.00 0.00 0.00 38 1013.9
20260504141017 62 209 2.6 8.7 0.00 0.00 0.00 49 1014.0
20260504140520 62 234 2.6 8.7 0.00 0.00 0.00 49 1014.0
20260504130517 58 207 4.3 11.3 0.00 0.00 0.00 60 1014.2
20260504110517 49 215 3.5 9.6 0.00 0.00 0.00 71 1014.9
20260504100520 48 238 3.5 9.6 0.00 0.00 0.00 64 1014.9
20260504081541 50 292 0.9 7.0 0.00 0.00 0.00 51 1014.9
20260504081018 50 304 1.7 7.0 0.00 0.00 0.00 51 1014.9
20260504080517 50 304 1.7 5.2 0.00 0.00 0.00 50 1015.0
20260504050520 53 0 0.0 0.0 0.00 0.00 0.00 43 1014.9
20260504045517 53 0 0.0 2.6 0.00 0.00 0.00 42 1014.9
20260504045016 53 0 0.0 3.5 0.00 0.00 0.00 42 1014.8
20260504044534 53 306 0.9 3.5 0.00 0.00 0.00 42 1014.7
20260504044018 53 289 0.9 6.1 0.00 0.00 0.00 42 1014.7
20260504043518 53 286 1.7 6.1 0.00 0.00 0.00 42 1014.7
20260504043044 53 257 1.7 4.3 0.00 0.00 0.00 42 1014.7
20260504042517 53 0 0.9 5.2 0.00 0.00 0.00 41 1014.7
20260504042018 53 287 1.7 6.1 0.00 0.00 0.00 41 1014.6
20260504041541 53 294 1.7 6.1 0.00 0.00 0.00 41 1014.5
20260504041017 53 0 1.7 6.1 0.00 0.00 0.00 41 1014.4
20260504040517 53 0 0.9 6.1 0.00 0.00 0.00 41 1014.3
20260504040042 53 288 1.7 5.2 0.00 0.00 0.00 41 1014.3
20260504035518 53 220 0.9 7.8 0.00 0.00 0.00 41 1014.4
20260504035016 54 314 1.7 7.8 0.00 0.00 0.00 41 1014.4
20260504034536 54 225 1.7 9.6 0.00 0.00 0.00 40 1014.3
20260504034020 54 274 0.9 9.6 0.00 0.00 0.00 40 1014.3
20260504033517 54 247 1.7 7.0 0.00 0.00 0.00 40 1014.3
20260504033037 54 279 1.7 7.0 0.00 0.00 0.00 40 1014.3
20260504032518 54 279 2.6 7.0 0.00 0.00 0.00 40 1014.2
20260504032024 54 302 1.7 6.1 0.00 0.00 0.00 40 1014.2
20260504031545 54 319 1.7 6.1 0.00 0.00 0.00 40 1014.3
20260504031020 54 252 1.7 8.7 0.00 0.00 0.00 40 1014.2
20260504030520 54 296 0.9 8.7 0.00 0.00 0.00 40 1014.1
20260504030044 54 272 1.7 7.0 0.00 0.00 0.00 40 1014.2
20260504025517 54 319 0.9 3.5 0.00 0.00 0.00 40 1014.1
20260504025020 54 177 0.9 6.1 0.00 0.00 0.00 40 1014.2
20260504024539 54 292 0.9 6.1 0.00 0.00 0.00 40 1014.2
20260504024022 54 236 0.9 6.1 0.00 0.00 0.00 40 1014.2
20260504023520 54 337 1.7 5.2 0.00 0.00 0.00 40 1014.2
20260504023037 54 289 1.7 5.2 0.00 0.00 0.00 40 1014.3
20260504022521 54 0 1.7 5.2 0.00 0.00 0.00 40 1014.2
20260504022020 54 281 0.9 5.2 0.00 0.00 0.00 40 1014.2
20260504021535 54 248 0.9 5.2 0.00 0.00 0.00 40 1014.2
20260504021020 54 331 1.7 5.2 0.00 0.00 0.00 39 1014.3
20260504020519 54 0 0.9 3.5 0.00 0.00 0.00 39 1014.2
20260504020034 55 250 0.9 3.5 0.00 0.00 0.00 39 1014.1
20260504015521 55 265 0.0 2.6 0.00 0.00 0.00 39 1014.1
20260504015024 55 219 0.9 2.6 0.00 0.00 0.00 38 1014.0
20260504014546 55 0 0.9 2.6 0.00 0.00 0.00 38 1014.0
20260504014021 55 296 0.9 3.5 0.00 0.00 0.00 38 1014.1
20260504013518 55 267 0.9 5.2 0.00 0.00 0.00 38 1014.0
20260504013051 55 267 0.9 5.2 0.00 0.00 0.00 37 1013.9
20260504012522 55 277 0.0 3.5 0.00 0.00 0.00 37 1013.9
20260504012017 55 0 0.0 3.5 0.00 0.00 0.00 37 1013.9
20260504011539 56 282 1.7 3.5 0.00 0.00 0.00 37 1013.8
20260504011024 56 0 0.9 3.5 0.00 0.00 0.00 37 1013.7
20260504010520 56 246 0.9 4.3 0.00 0.00 0.00 37 1013.7
20260504010039 56 282 0.9 5.2 0.00 0.00 0.00 37 1013.6
20260504005521 56 295 0.9 5.2 0.00 0.00 0.00 36 1013.6
20260504005023 56 301 0.9 2.6 0.00 0.00 0.00 36 1013.6
20260504004535 56 0 0.0 2.6 0.00 0.00 0.00 36 1013.5
20260504004020 57 0 0.0 2.6 0.00 0.00 0.00 36 1013.4
20260504003520 57 0 0.9 2.6 0.00 0.00 0.00 35 1013.3
20260504003042 57 294 0.0 4.3 0.00 0.00 0.00 35 1013.2
20260504002520 57 0 0.9 4.3 0.00 0.00 0.00 34 1013.2
20260504002020 58 0 0.9 3.5 0.00 0.00 0.00 34 1013.2
20260504001609 58 0 0.0 3.5 0.00 0.00 0.00 33 1013.1
20260504001017 58 284 0.9 8.7 0.00 0.00 0.00 33 1013.0
20260504000517 58 276 1.7 8.7 0.00 0.00 0.00 33 1013.0
20260504000037 59 292 2.6 8.7 0.00 0.00 0.00 32 1013.0
20260503235517 59 295 3.5 10.4 0.00 0.00 0.00 32 1012.9
20260503235018 59 302 6.1 10.4 0.00 0.00 0.00 31 1012.8
20260503234535 59 325 4.3 9.6 0.00 0.00 0.00 32 1012.7
20260503234017 59 302 4.3 8.7 0.00 0.00 0.00 32 1012.7
20260503233517 59 284 3.5 10.4 0.00 0.00 0.00 31 1012.8
20260503233039 60 304 3.5 10.4 0.00 0.00 0.00 31 1012.6
20260503232516 60 282 4.3 10.4 0.00 0.00 0.00 31 1012.7
20260503232016 60 322 5.2 10.4 0.00 0.00 0.00 30 1012.6
20260503231534 60 300 3.5 10.4 0.00 0.00 0.00 31 1012.6
20260503231018 60 296 5.2 13.0 0.00 0.00 0.00 30 1012.6
20260503230519 60 320 6.1 13.0 0.00 0.00 0.00 30 1012.6
20260503230035 60 332 7.0 13.0 0.00 0.00 0.00 30 1012.5
20260503225520 60 327 6.1 12.2 0.00 0.00 0.00 30 1012.5
20260503225020 60 266 6.1 13.9 0.00 0.00 0.00 29 1012.5
20260503224541 60 318 7.8 13.9 0.00 0.00 0.00 29 1012.4
20260503224018 60 312 5.2 11.3 0.00 0.00 0.00 28 1012.4
20260503223517 60 285 7.0 12.2 0.00 0.00 0.00 29 1012.5
20260503223040 61 292 6.1 12.2 0.00 0.00 0.00 28 1012.5
20260503222518 61 324 8.7 14.8 0.00 0.00 0.00 28 1012.4
20260503222016 61 262 7.0 14.8 0.00 0.00 0.00 28 1012.5
20260503221537 61 332 7.0 12.2 0.00 0.00 0.00 28 1012.5
20260503221017 61 340 7.0 15.6 0.00 0.00 0.00 28 1012.4
20260503220519 61 328 9.6 17.4 0.00 0.00 0.00 28 1012.4
20260503220035 61 339 10.4 17.4 0.00 0.00 0.00 27 1012.4
20260503215518 61 352 7.0 12.2 0.00 0.00 0.00 28 1012.4
20260503215017 61 317 6.1 13.0 0.00 0.00 0.00 28 1012.4
20260503214534 61 352 4.3 13.0 0.00 0.00 0.00 29 1012.4
20260503214017 61 331 8.7 13.0 0.00 0.00 0.00 28 1012.3
20260503213517 60 318 7.0 14.8 0.00 0.00 0.00 28 1012.4
20260503213043 60 331 7.8 14.8 0.00 0.00 0.00 28 1012.3
20260503212516 60 308 6.1 13.9 0.00 0.00 0.00 28 1012.2
20260503212017 60 298 8.7 18.2 0.00 0.00 0.00 28 1012.3
20260503211539 60 327 10.4 18.2 0.00 0.00 0.00 27 1012.4
20260503211021 60 327 9.6 18.2 0.00 0.00 0.00 27 1012.3
20260503210521 60 321 6.1 18.2 0.00 0.00 0.00 28 1012.4
20260503210036 60 312 7.0 18.2 0.00 0.00 0.00 29 1012.5
20260503205521 60 319 7.0 18.2 0.00 0.00 0.00 28 1012.4
20260503205021 60 336 9.6 14.8 0.00 0.00 0.00 29 1012.4